STARLINK-31881, 59659

Orbit data source: Space-Track

STARLINK-31881, 59659 is a payload satellite owned by SpaceX/Seattle (US) in LEO that was launched on Mon, 06 May 2024 UTC via an FALCON 9 launch vehicle from the Air Force Eastern Test Range (AFETR). Payload-class satellites include a variety of spacecraft equipped with specific instruments for various scientific and technological missions. These include communications satellites like Starlink; space stations such as the ISS; scientific satellites like the Hubble; Earth observation satellites from companies like Planet Labs, Umbra, and HawkEye 360; GPS; miniature CubeSats for education and research; and military/defense satellites.

Loading next visibility...
Identifier
59659, 2024-084F
Orbit
LEO
Country
Flag of USUS
Related business
Manufacturer
SpaceX/Seattle
Mission
Operational Commercial Communications
Bus & Motor
STARLINK V2M, Unknown motor
Mass
730 kg wet, ~700 kg dry
Launch date (UTC)
2024-05-06 (1 year ago)
Launch vehicle
FALCON 9
Launch site
Air Force Eastern Test Range (AFETR)
Object type
Payload
Rocket body
Debris
Shape & HBR
Box + 2 Pan, 17.7 m
Radar Cross Section
33.884 m², Large (>1 m²)

Expand to show TLE details & history
Last TLE update: 6 hours ago

TLE from 6 hours ago
0 STARLINK-31881
1 59659U 24084F   25288.63799415  .00004052  00000-0  15672-3 0  9996
2 59659  43.0022 137.1475 0001750 274.2597  85.8055 15.27575923 82236
Epoch: 2025-10-15T15:18Z
TLE epoch observation values (Epoch: 2025-10-15T15:18:42.694Z)
Latitude
Longitude
-116.93959°
Altitude
482.749 km
Speed
7.626 km/s
True Right ascension
09h 08m 35s
True Declination
0° 00' 00"
Sunlit
Object was in daylight at epoch
Visualization orbit readout
Latitude
Unknown
Longitude
Unknown
Altitude
Unknown
Speed
Unknown
Apparent Right ascension
Unknown
Apparent Declination
Unknown
Sunlit
N/A
Visualization observer readout
Local Sidereal Time
15:57:50
Azimuth
Unknown
Elevation
Unknown
Doppler factor
Unknown
Orbital elements
Apogee altitude
486.207 km
Perigee altitude
483.805 km
Semi-major axis
6,863.143 km
Eccentricity
0.00018
Inclination
43.0022°
RAAN
137.1475°
Arg. of periapsis
274.2597°
True anomaly
85.8255°
Mean anomaly
85.8055°
Eccentric anomaly
85.8155°
Mean motion
3.81732 °/min
Orbital period
94.31 mins
BSTAR
0.00015672
Loading maneuver chart data...
Computing Atmospheric mass density...
Loading historical data...
Loading historical data...
Loading historical data...
Loading historical data...
Loading historical data...
Loading historical data...
Loading historical data...

Documentation

Showing up to 5 results
|